[Iaude] MPEC P75: 2024 PE1 [a=1.84,e=0.41,i=12.4,H=20.1]
    mpec at cfa.harvard.edu 
    mpec at cfa.harvard.edu
       
    Tue Aug  6 07:39:36 EDT 2024
    
    
  
M.P.E.C. 2024-P75                                Issued 2024 August 6, 11:38 UT
     The Minor Planet Electronic Circulars contain information on unusual
         minor planets, routine data on comets and natural satellites,
         and occasional editorial announcements.  They are published
    on behalf of Division F of the International Astronomical Union by the
          Minor Planet Center, Smithsonian Astrophysical Observatory,
                          Cambridge, MA 02138, U.S.A.
			  
             Prepared using the Tamkin Foundation Computer Network
                              MPC at CFA.HARVARD.EDU
            URL https://www.minorplanetcenter.net/    ISSN 1523-6714
                                    2024 PE1                                    
Observations:
     K24P01E* C2024 08 01.56040600 25 11.062-28 53 13.36         22.07wXEP075F51
     K24P01E  C2024 08 01.57071600 25 10.580-28 53 20.92         21.93wXEP075F51
     K24P01E  C2024 08 01.58103800 25 10.097-28 53 28.59         21.70wXEP075F51
     K24P01E 3C2024 08 03.54196200 23 41.337-29 17 06.51         21.35GVEP075T14
     K24P01E 3C2024 08 03.54293800 23 41.285-29 17 07.17         21.29GVEP075T14
     K24P01E 3C2024 08 03.54391600 23 41.230-29 17 07.95         21.27GVEP075T14
     K24P01E 3C2024 08 05.58577600 21 53.139-29 41 29.15         21.22GVEP075T14
     K24P01E 3C2024 08 05.58675400 21 53.077-29 41 29.87         21.22GVEP075T14
     K24P01E 3C2024 08 05.58773800 21 53.015-29 41 30.60         21.35GVEP075T14
     K24P01E  C2024 08 06.46311900 21 02.071-29 51 51.04         21.3 GVEP075H01
     K24P01E  C2024 08 06.46676200 21 01.844-29 51 53.51         21.1 GVEP075H01
Observer details:
F51 Pan-STARRS 1, Haleakala.  Observers J. Herman, T. Lowe, P. Minguez, A.
    Schultz, I. Smith.  Measurers K. Chambers, T. de Boer, J. Fairlamb, H.
    Gao, M. Huber, C.-C. Lin, E. Magnier, Y. Ramanjooloo, R. Wainscoat, R.
    Weryk.  1.8-m Ritchey-Chretien + CCD.
H01 Magdalena Ridge Observatory, Socorro.  Observers W. H. Ryan, E. V. Ryan.
    Measurer W. H. Ryan.  2.4-m f/8.9 Ritchey-Chretien + CCD.
T14 Canada-France-Hawaii Telescope, Maunakea.  Observers R. Wainscoat, A.
    Acohido, H. Flewelling, V. Khatu.  Measurers R. Weryk, R. Wainscoat.
    3.6-m f/4.1 reflector + CCD.
Orbital elements:
2024 PE1                                                 Earth MOID = 0.0760 AU
Epoch 2024 Oct. 17.0 TT = JDT 2460600.5                 MPC                     
M  75.92188              (2000.0)            P               Q                  
n   0.39588117     Peri.  176.10259     -0.58654301     +0.78921894             
a   1.8369309      Node    57.89022     -0.74877193     -0.44277721             
e   0.4091850      Incl.   12.40337     -0.30871977     -0.42553707             
P   2.49           H   20.14          G   0.15           U   8                  
Residuals in seconds of arc
240801 F51  0.1-  0.1+    240803 T14  0.0   0.0     240805 T14  0.0   0.0
240801 F51  0.0   0.1+    240803 T14  0.0   0.0     240806 H01  0.1-  0.1-
240801 F51  0.1+  0.1-    240805 T14  0.0   0.1+    240806 H01  0.0   0.0
240803 T14  0.0   0.0     240805 T14  0.0   0.0
Ephemeris:
2024 PE1                 a,e,i = 1.84, 0.41, 12                  q = 1.0853
Date    TT    R. A. (2000) Decl.     Delta      r    Elong.  Phase     V
2024 07 07    00 22 39.2 -24 18 24   0.6979  1.4022   108.3    43.5    21.8
...
2024 07 22    00 28 57.9 -26 47 49   0.6900  1.4866   120.0    36.3    21.7
...
2024 07 30    00 26 44.9 -28 22 06   0.6890  1.5321   127.0    32.0    21.6
...
2024 08 05    00 22 25.7 -29 34 22   0.6914  1.5662   132.4    28.6    21.6
2024 08 06    00 21 29.5 -29 46 12   0.6921  1.5719   133.3    28.0    21.6
2024 08 07    00 20 29.7 -29 57 56   0.6930  1.5776   134.2    27.4    21.6
...
2024 08 13    00 13 19.1 -31 04 28   0.7006  1.6116   139.5    24.1    21.5
...
2024 08 21    00 01 02.4 -32 16 48   0.7187  1.6565   145.9    20.0    21.5
...
2024 09 05    23 33 44.2 -33 13 15   0.7827  1.7393   152.2    15.7    21.7
A. U. Tomatic                (C) Copyright 2024 MPC           M.P.E.C. 2024-P75
    
    
More information about the Iaude
mailing list